User: anonymous   Login
Location: *
(2.5500°S, 65.9667°W)
Time: 20:17:35
(UTC+00:00)
Language:

S-56A Canister/Altair - Orbit

View from above orbital plane
View from above orbital plane
View from above satellite
View from above satellite

Ground track
Ground track

The orbit data is extracted from the following two-line orbital elements,

1 00082U 61004B   24102.40955621  .00000584  00000-0  52685-3 0  9998
2 00082  38.8575  76.9372 1164941 331.6179  22.5535 12.26643600978914
Epoch (UTC): 11 April 2024 09:49:45
Eccentricity: 0.1164941
inclination: 38.8575°
perigee height: 638 km
apogee height: 2489 km
right ascension of ascending node: 76.9372°
argument of perigee: 331.6179°
revolutions per day: 12.26643600
mean anomaly at epoch: 22.5535°
orbit number at epoch: 97891

The dashed part of the orbit path shows where the satellite is in the earth's shadow,  

DLR